User: anonymous   Login
Location: Gipe Farm
(40.9466°N, 95.5370°W)
Time: 22:21:23
(UTC-06:00)
Language:

Cosmos 1842 - Orbit

View from above orbital plane
View from above orbital plane
View from above satellite
View from above satellite

Ground track
Ground track

The orbit data is extracted from the following two-line orbital elements,

1 17911U 87038A   14351.19322845  .00004940  00000-0  32119-3 0  6446
2 17911 082.4911 005.4337 0012708 113.0120 247.2450 15.07732117504023
Epoch (UTC): 17 December 2014 04:38:14
Eccentricity: 0.0012708
inclination: 82.4911°
perigee height: 534 km
apogee height: 552 km
right ascension of ascending node: 5.4337°
argument of perigee: 113.0120°
revolutions per day: 15.07732117
mean anomaly at epoch: 247.2450°
orbit number at epoch: 50402

The dashed part of the orbit path shows where the satellite is in the earth's shadow,  

DLR